Weather History for Harrisburg, PA

Change the Weather History Date:

Friday, January 3, 2014

  Actual Average Record
Temperature  
Mean Temperature 16 °F -  
Max Temperature 21 °F 38 °F 60 °F (1950)
Min Temperature 10 °F 25 °F 4 °F (1918)
Degree Days  
Heating Degree Days 50    
Moisture  
Dew Point 4 °F    
Average Humidity 62    
Maximum Humidity 86    
Minimum Humidity 34    
Precipitation  
Precipitation 0.01 in - - ()
Sea Level Pressure  
Sea Level Pressure 30.08 in    
Wind  
Wind Speed 13 mph (NW)    
Max Wind Speed 23 mph    
Max Gust Speed 31 mph    
Visibility 7 miles    
Events Snow    
Averages and records for this station are not official NWS values.
T = Trace of Precipitation, MM = Missing Value Source: NWS Daily Summary

Daily Weather History Graph

Daily Weather History Graph

Search for Another Location

Airport:

Trip Planner

Search our weather history database for the weather conditions in past years. The results will help you decide how hot, cold, wet, or windy it might be!

Date:

Astronomy

Jan. 03, 2014 Rise Set
Actual Time 7:30 AM EST 4:54 PM EST
Civil Twilight 6:59 AM EST 5:24 PM EST
Nautical Twilight 6:25 AM EST 5:58 PM EST
Astronomical Twilight 5:52 AM EST 6:31 PM EST
Moon 8:54 AM EST (1/3) 8:00 PM EST (1/3)
Length of Visible Light 10h 24m
Length of Day
9h 23m
Waxing Crescent, 8% of the Moon is Illuminated
Jan 3
Waxing Crescent
Jan 7
First Quarter
Jan 15
Full
Jan 24
Last Quarter
Jan 30
New

Hourly Weather History & Observations

Time (EST) Temp. Windchill Dew Point Humidity Pressure Visibility Wind Dir Wind Speed Gust Speed Precip Events Conditions
12:48 AM 21.2 °F 9.5 °F 15.8 °F 80% 29.71 in 2.0 mi NNW 11.5 mph 18.4 mph 0.01 in Snow Light Snow
12:56 AM 19.9 °F 6.7 °F 16.0 °F 85% 29.74 in 1.2 mi NNW 13.8 mph 21.9 mph 0.01 in Snow Light Snow
1:13 AM 19.4 °F 6.6 °F 15.8 °F 86% 29.73 in 1.5 mi NNW 12.7 mph 19.6 mph 0.00 in Snow Light Snow
1:24 AM 17.6 °F 4.3 °F 12.2 °F 79% 29.74 in 2.0 mi NNW 12.7 mph - 0.00 in Snow Light Snow
1:56 AM 18.0 °F 3.6 °F 10.9 °F 74% 29.79 in 3.0 mi North 15.0 mph 23.0 mph 0.00 in Snow Light Snow
2:07 AM 17.6 °F 2.2 °F 12.2 °F 79% 29.77 in 2.0 mi NNW 17.3 mph 24.2 mph 0.00 in Snow Light Snow
2:20 AM 17.6 °F 3.7 °F 10.4 °F 73% 29.79 in 3.0 mi North 13.8 mph 25.3 mph 0.00 in Snow Light Snow
2:38 AM 17.6 °F 4.3 °F 12.2 °F 79% 29.80 in 2.0 mi NNW 12.7 mph 21.9 mph 0.00 in Snow Light Snow
2:52 AM 17.6 °F 2.2 °F 12.2 °F 79% 29.81 in 1.8 mi NW 17.3 mph 26.5 mph 0.00 in Snow Light Snow
2:56 AM 17.1 °F 0.1 °F 12.0 °F 81% 29.83 in 1.8 mi NW 20.7 mph 27.6 mph 0.00 in Snow Light Snow
3:07 AM 17.6 °F 0.5 °F 10.4 °F 73% 29.82 in 1.5 mi NNW 21.9 mph 26.5 mph 0.00 in Snow Light Snow
3:22 AM 15.8 °F -2.3 °F 8.6 °F 73% 29.83 in 2.0 mi NNW 23.0 mph 31.1 mph 0.00 in Snow Light Snow
3:36 AM 15.8 °F 0.3 °F 8.6 °F 73% 29.84 in 3.0 mi NNW 16.1 mph 25.3 mph 0.00 in Snow Light Snow
3:56 AM 16.0 °F 0.6 °F 10.9 °F 81% 29.88 in 2.0 mi NNW 16.1 mph 21.9 mph 0.00 in Snow Light Snow
4:31 AM 15.8 °F 0.9 °F 6.8 °F 68% 29.89 in 6.0 mi North 15.0 mph 25.3 mph 0.00 in Snow Light Snow
4:41 AM 15.8 °F 0.9 °F 6.8 °F 68% 29.90 in 8.0 mi NNW 15.0 mph 23.0 mph 0.00 in   Overcast
4:56 AM 15.1 °F 1.1 °F 6.1 °F 68% 29.93 in 10.0 mi NNW 12.7 mph 21.9 mph 0.00 in   Overcast
5:56 AM 14.0 °F -2.0 °F 3.0 °F 62% 29.99 in 8.0 mi NNW 16.1 mph 29.9 mph 0.00 in   Overcast
6:56 AM 12.9 °F -1.6 °F 1.0 °F 59% 30.08 in 10.0 mi NW 12.7 mph 24.2 mph N/A   Partly Cloudy
7:56 AM 10.9 °F -7.5 °F -0.9 °F 59% 30.14 in 10.0 mi NW 19.6 mph 29.9 mph N/A   Clear
8:56 AM 12.0 °F -4.5 °F -0.9 °F 56% 30.20 in 10.0 mi NW 16.1 mph 25.3 mph N/A   Clear
9:56 AM 12.9 °F -0.9 °F -0.9 °F 54% 30.25 in 10.0 mi NW 11.5 mph 20.7 mph N/A   Clear
10:56 AM 14.0 °F 0.5 °F -2.0 °F 49% 30.28 in 10.0 mi NW 11.5 mph - N/A   Clear
11:56 AM 16.0 °F 4.4 °F -2.0 °F 45% 30.28 in 10.0 mi NW 9.2 mph - N/A   Clear
12:56 PM 17.1 °F 4.3 °F -2.0 °F 43% 30.28 in 10.0 mi NW 11.5 mph 18.4 mph N/A   Clear
1:56 PM 18.0 °F 4.2 °F -2.9 °F 40% 30.30 in 10.0 mi NW 13.8 mph 27.6 mph N/A   Clear
2:56 PM 19.0 °F 4.5 °F -5.1 °F 34% 30.33 in 10.0 mi NW 16.1 mph 23.0 mph N/A   Clear
3:56 PM 19.0 °F 5.6 °F -5.1 °F 34% 30.35 in 10.0 mi NW 13.8 mph - N/A   Clear
4:56 PM 18.0 °F 9.8 °F -5.1 °F 36% 30.39 in 10.0 mi WNW 5.8 mph - N/A   Clear
5:56 PM 16.0 °F 5.3 °F -2.9 °F 43% 30.42 in 10.0 mi West 8.1 mph - N/A   Clear
6:56 PM 16.0 °F 7.4 °F -2.9 °F 43% 30.45 in 10.0 mi West 5.8 mph - N/A   Clear
7:56 PM 12.9 °F 5.2 °F -2.0 °F 51% 30.49 in 10.0 mi WSW 4.6 mph - N/A   Clear
8:56 PM 10.9 °F 2.9 °F -2.0 °F 56% 30.49 in 10.0 mi WSW 4.6 mph - N/A   Clear
9:56 PM 12.0 °F 2.7 °F -2.0 °F 53% 30.49 in 10.0 mi WSW 5.8 mph - N/A   Clear
10:56 PM 10.0 °F - -0.9 °F 61% 30.49 in 10.0 mi Calm Calm - N/A   Clear
11:56 PM 10.0 °F - -2.0 °F 58% 30.48 in 10.0 mi Calm Calm - N/A   Clear